Hourly Data Report for September 26, 2017

All times are specified in Local Standard Time (LST). Add 1 hour to adjust for Daylight Saving Time where and when it is observed.

GJOA HAVEN A
NUNAVUT

68°38'08.000" N
95°51'01.000" W
46.90 m
2302337
71597
YHK

Download Data

Hourly Data (September 2017)
Hourly Data Report for September 26, 2017
Temp Definition
°C
Dew Point Temp Definition
°C
Rel Hum Definition
%
Wind Dir Definition
10's deg

Wind Spd Definition
km/h
Visibility Definition
km
Stn Press Definition
kPa
Hmdx Definition


Wind Chill Definition


Weather Definition


TIME
00:00 Legend Double Dagger 2.2 1.3 94 17 21 16.1 100.84     LegendNANA
01:00 Legend Double Dagger 2.1 0.9 92 17 22 16.1 100.81     LegendNANA
02:00 Legend Double Dagger 2.0 0.7 91 17 22 16.1 100.77     LegendNANA
03:00 Legend Double Dagger 1.9 0.7 92 16 21 16.1 100.74     LegendNANA
04:00 Legend Double Dagger 1.9 0.9 93 16 22 16.1 100.71     LegendNANA
05:00 Legend Double Dagger 2.0 1.1 94 16 18 16.1 100.66     LegendNANA
06:00 Legend Double Dagger 2.2 1.3 94 15 17 16.1 100.64     LegendNANA
07:00 Legend Double Dagger 2.4 1.5 94 15 21 16.1 100.59     LegendNANA
08:00 Legend Double Dagger 2.7 1.8 94 15 18 16.1 100.57     LegendNANA
09:00 Legend Double Dagger 2.7 1.7 93 15 21 16.1 100.51     LegendNANA
10:00 Legend Double Dagger 4.1 2.3 88 17 21 16.1 100.48     LegendNANA
11:00 Legend Double Dagger 4.1 2.8 91 18 24 16.1 100.45     LegendNANA
12:00 Legend Double Dagger 3.8 2.8 93 18 28 14.5 100.41     LegendNANA
13:00 Legend Double Dagger 3.6 3.2 97 18 22 11.3 100.37     LegendNANA
14:00 Legend Double Dagger 3.3 3.0 98 17 21 16.1 100.35     LegendNANA
15:00 Legend Double Dagger 3.4 3.3 99 17 22 0.6 100.30     Rain,Fog
16:00 Legend Double Dagger 3.6 3.6 100 17 24 3.2 100.28     Rain,Fog
17:00 Legend Double Dagger 3.6 3.6 100 17 21 16.1 100.22     LegendNANA
18:00 Legend Double Dagger 3.7 3.7 100 17 22 16.1 100.18     LegendNANA
19:00 Legend Double Dagger 3.6 3.6 100 17 21 4.8 100.16     Fog
20:00 Legend Double Dagger 3.5 3.5 100 17 18 0.8 100.11     Rain,Fog
21:00 Legend Double Dagger 3.5 3.5 100 18 18 0.6 100.06     Rain,Fog
22:00 Legend Double Dagger 3.7 3.7 100 21 18 0.6 100.04     Fog
23:00 Legend Double Dagger 3.7 3.7 100 22 21 0.4 100.01     Rain,Fog

Notes on Data Quality.

Legend

  • E = Estimated
  • M = Missing
  • NA = Not Available
  • ‡ = Partner data that is not subject to review by the National Climate Archives
Date modified: